User: anonymous   Login
Location: Unspecified
(0.0000°N, 0.0000°E)
Time: 05:26:03
(UTC+00:00)
Language:

NOSS 3-2 (C) - Orbit

View from above orbital plane
View from above orbital plane
View from above satellite
View from above satellite

Ground track
Ground track

The orbit data is extracted from the following two-line orbital elements,

1 28097U 03054C   17141.05843348 0.00000000  00000-0  00000-0 0    00
2 28097  63.4140  25.6926 0300000 358.1636   1.8364 13.40736652    00
Epoch (UTC): 21 May 2017 01:24:08
Eccentricity: 0.0300000
inclination: 63.4140°
perigee height: 882 km
apogee height: 1331 km
right ascension of ascending node: 25.6926°
argument of perigee: 358.1636°
revolutions per day: 13.40736652
mean anomaly at epoch: 1.8364°
orbit number at epoch: 0

The dashed part of the orbit path shows where the satellite is in the earth's shadow,  

DLR